Weather History for Muscle Shoals, AL

Change the Weather History Date:

Saturday, August 24, 2013

  Actual Average Record
Temperature  
Mean Temperature 82 °F 79 °F  
Max Temperature 91 °F 91 °F 102 °F (2007)
Min Temperature 72 °F 68 °F 54 °F (1920)
Degree Days  
Heating Degree Days 0 0  
Month to date heating degree days 0 0  
Since 1 June heating degree days 0 1  
Since 1 July heating degree days 0 0  
Cooling Degree Days 17 14  
Month to date cooling degree days 314 365  
Year to date cooling degree days 1380 1448  
Since 1 June cooling degree days 1140 1204  
Growing Degree Days 31 (Base 50)    
Moisture  
Dew Point 70 °F    
Average Humidity 70    
Maximum Humidity 93    
Minimum Humidity 47    
Precipitation  
Precipitation 0.00 in 0.10 in 2.38 in (2007)
Month to date precipitation 5.70 2.46  
Year to date precipitation 42.89 35.02  
Snow  
Snow 0.00 in - - ()
Month to date snowfall 0.0  
Since 1 June snowfall 0.0  
Since 1 July snowfall 0.0  
Snow Depth 0.00 in    
Sea Level Pressure  
Sea Level Pressure 30.12 in    
Wind  
Wind Speed 4 mph (ESE)    
Max Wind Speed 10 mph    
Max Gust Speed 14 mph    
Visibility 10 miles    
Events      
T = Trace of Precipitation, MM = Missing Value Source: NWS Daily Summary

Daily Weather History Graph

Daily Weather History Graph

Search for Another Location

Airport:

Trip Planner

Search our weather history database for the weather conditions in past years. The results will help you decide how hot, cold, wet, or windy it might be!

Date:

Astronomy

Aug. 24, 2013 Rise Set
Actual Time 6:17 AM CDT 7:27 PM CDT
Civil Twilight 5:51 AM CDT 7:53 PM CDT
Nautical Twilight 5:20 AM CDT 8:24 PM CDT
Astronomical Twilight 4:48 AM CDT 8:56 PM CDT
Moon 9:34 PM CDT (8/24) 10:04 AM CDT (8/24)
Length of Visible Light 14h 01m
Length of Day
13h 09m
Waning Gibbous, 84% of the Moon is Illuminated
Aug 24
Waning Gibbous
Aug 28
Last Quarter
Sep 5
New
Sep 12
First Quarter
Sep 19
Full

Hourly Weather History & Observations

Time (CDT) Temp. Heat Index Dew Point Humidity Pressure Visibility Wind Dir Wind Speed Gust Speed Precip Events Conditions
12:53 AM 73.9 °F - 71.1 °F 91% 30.06 in 10.0 mi Calm Calm - N/A   Clear
1:53 AM 73.9 °F - 71.1 °F 91% 30.06 in 10.0 mi Calm Calm - N/A   Clear
2:53 AM 73.0 °F - 70.0 °F 90% 30.06 in 10.0 mi Calm Calm - N/A   Clear
4:53 AM 73.9 °F - 70.0 °F 87% 30.07 in 10.0 mi Calm Calm - N/A   Clear
5:53 AM 72.0 °F - 69.1 °F 91% 30.09 in 10.0 mi Calm Calm - N/A   Clear
6:53 AM 73.0 °F - 69.1 °F 87% 30.11 in 10.0 mi East 3.5 mph - N/A   Clear
7:53 AM 75.0 °F - 70.0 °F 84% 30.14 in 10.0 mi Calm Calm - N/A   Clear
8:53 AM 79.0 °F - 70.0 °F 74% 30.15 in 10.0 mi East 4.6 mph - N/A   Clear
9:53 AM 82.0 °F 85.9 °F 70.0 °F 67% 30.16 in 10.0 mi ENE 4.6 mph - N/A   Clear
10:53 AM 84.9 °F 89.4 °F 70.0 °F 61% 30.15 in 10.0 mi SE 6.9 mph - N/A   Clear
11:53 AM 88.0 °F 93.8 °F 71.1 °F 57% 30.15 in 10.0 mi ESE 8.1 mph - N/A   Clear
12:53 PM 89.1 °F 93.7 °F 69.1 °F 52% 30.14 in 10.0 mi East 5.8 mph - N/A   Clear
1:53 PM 90.0 °F 92.8 °F 66.9 °F 46% 30.14 in 10.0 mi Variable 4.6 mph - N/A   Clear
2:53 PM 90.0 °F 94.5 °F 69.1 °F 50% 30.13 in 10.0 mi SE 4.6 mph - N/A   Partly Cloudy
3:53 PM 90.0 °F 93.6 °F 68.0 °F 48% 30.11 in 10.0 mi East 5.8 mph - N/A   Clear
4:53 PM 90.0 °F 94.5 °F 69.1 °F 50% 30.10 in 10.0 mi East 8.1 mph - N/A   Clear
5:53 PM 88.0 °F 92.1 °F 69.1 °F 53% 30.10 in 10.0 mi East 5.8 mph - N/A   Clear
6:53 PM 84.9 °F 90.1 °F 71.1 °F 63% 30.11 in 10.0 mi East 3.5 mph - N/A   Clear
7:53 PM 80.1 °F 83.8 °F 72.0 °F 76% 30.13 in 10.0 mi East 4.6 mph - N/A   Clear
8:53 PM 78.1 °F - 71.1 °F 79% 30.14 in 10.0 mi East 4.6 mph - N/A   Clear
9:53 PM 77.0 °F - 71.1 °F 82% 30.16 in 10.0 mi ESE 4.6 mph - N/A   Clear
10:53 PM 75.0 °F - 70.0 °F 84% 30.17 in 10.0 mi ESE 3.5 mph - N/A   Clear
11:53 PM 73.9 °F - 70.0 °F 87% 30.19 in 10.0 mi SE 3.5 mph - N/A   Clear